,,,PA_Meas_PMT16A,,PR_Meas_QMR101_102,,RH_Meas_QMH101,,SR_Meas_QMS101,,TA_Meas_QMH101,,GenWind,,GenWind,
date,time,status,PA,status,PR,status,RH,status,SR,status,TA,status,DirAvg,status,SpdAvg,
2011-04-22, 00:00:04,VALID,1009.77,VALID,0,VALID,104,VALID,0,VALID,23.9473,VALID,78,VALID,0,
2011-04-22, 00:01:04,VALID,1009.75,VALID,0,VALID,104,VALID,0,VALID,23.9473,VALID,78,VALID,0,
2011-04-22, 00:02:04,VALID,1009.73,VALID,0,VALID,104,VALID,0,VALID,23.9473,VALID,78,VALID,0,
2011-04-22, 00:03:04,VALID,1009.73,VALID,0,VALID,104,VALID,0,VALID,23.9473,VALID,78,VALID,0,
2011-04-22, 00:04:04,VALID,1009.71,VALID,0,VALID,104,VALID,0,VALID,23.9668,VALID,78,VALID,0,
2011-04-22, 00:05:04,VALID,1009.74,VALID,0,VALID,104,VALID,0,VALID,23.9473,VALID,78,VALID,0,
2011-04-22, 00:06:04,VALID,1009.72,VALID,0,VALID,104,VALID,0,VALID,23.9668,VALID,78,VALID,0,
2011-04-22, 00:07:04,VALID,1009.7,VALID,0,VALID,104,VALID,0,VALID,23.9668,VALID,78,VALID,0,
2011-04-22, 00:08:04,VALID,1009.7,VALID,0,VALID,104,VALID,0,VALID,23.9668,VALID,78,VALID,0,
2011-04-22, 00:09:04,VALID,1009.72,VALID,0,VALID,104,VALID,0,VALID,23.9455,VALID,78,VALID,0,
2011-04-22, 00:10:04,VALID,1009.7,VALID,0,VALID,104,VALID,0,VALID,23.9863,VALID,78,VALID,0,
2011-04-22, 00:11:04,VALID,1009.68,VALID,0,VALID,104,VALID,0,VALID,23.9668,VALID,78,VALID,0,
2011-04-22, 00:12:04,VALID,1009.62,VALID,0,VALID,104,VALID,0,VALID,23.9863,VALID,78,VALID,0,
2011-04-22, 00:13:04,VALID,1009.65,VALID,0,VALID,104,VALID,0,VALID,23.9863,VALID,78,VALID,0,
2011-04-22, 00:14:04,VALID,1009.6,VALID,0,VALID,104,VALID,0,VALID,23.9863,VALID,78,VALID,0,
2011-04-22, 00:15:04,VALID,1009.6,VALID,0,VALID,104,VALID,0,VALID,23.9863,VALID,78,VALID,0,
2011-04-22, 00:16:04,VALID,1009.59,VALID,0,VALID,104,VALID,0,VALID,23.9863,VALID,78,VALID,0,
2011-04-22, 00:17:04,VALID,1009.57,VALID,0,VALID,104,VALID,0,VALID,24.0271,VALID,78,VALID,0,
2011-04-22, 00:18:04,VALID,1009.55,VALID,0,VALID,104,VALID,0,VALID,23.9863,VALID,78,VALID,0,
2011-04-22, 00:19:04,VALID,1009.53,VALID,0,VALID,104,VALID,0,VALID,24.0058,VALID,78,VALID,0,
2011-04-22, 00:20:04,VALID,1009.51,VALID,0,VALID,104,VALID,0,VALID,23.9863,VALID,78,VALID,0,
2011-04-22, 00:21:04,VALID,1009.51,VALID,0,VALID,104,VALID,0,VALID,23.9863,VALID,78,VALID,0,
2011-04-22, 00:22:04,VALID,1009.52,VALID,0,VALID,104,VALID,0,VALID,23.9881,VALID,78,VALID,0,
2011-04-22, 00:23:04,VALID,1009.52,VALID,0,VALID,104,VALID,0,VALID,23.9863,VALID,78,VALID,0,
2011-04-22, 00:24:04,VALID,1009.51,VALID,0,VALID,104,VALID,0,VALID,23.9668,VALID,78,VALID,0,
2011-04-22, 00:25:04,VALID,1009.51,VALID,0,VALID,104,VALID,0,VALID,23.9455,VALID,78,VALID,0,
2011-04-22, 00:26:04,VALID,1009.51,VALID,0,VALID,104,VALID,0,VALID,23.9668,VALID,78,VALID,0,
2011-04-22, 00:27:04,VALID,1009.5,VALID,0,VALID,104,VALID,0,VALID,23.9668,VALID,78,VALID,0,
2011-04-22, 00:28:04,VALID,1009.49,VALID,0,VALID,104,VALID,0,VALID,23.9668,VALID,78,VALID,0,
2011-04-22, 00:29:04,VALID,1009.46,VALID,0,VALID,104,VALID,0,VALID,23.9668,VALID,78,VALID,0,
2011-04-22, 00:30:04,VALID,1009.44,VALID,0,VALID,104,VALID,0,VALID,23.9668,VALID,78,VALID,0,
2011-04-22, 00:31:04,VALID,1009.42,VALID,0,VALID,104,VALID,0,VALID,23.9863,VALID,78,VALID,0,
2011-04-22, 00:32:04,VALID,1009.37,VALID,0,VALID,104,VALID,0,VALID,23.9863,VALID,78,VALID,0,
2011-04-22, 00:33:04,VALID,1009.39,VALID,0,VALID,104,VALID,0,VALID,23.9881,VALID,78,VALID,0,
2011-04-22, 00:34:04,VALID,1009.37,VALID,0,VALID,104,VALID,0,VALID,23.9668,VALID,78,VALID,0,
2011-04-22, 00:35:04,VALID,1009.37,VALID,0,VALID,104,VALID,0,VALID,23.9668,VALID,78,VALID,0,
2011-04-22, 00:36:04,VALID,1009.39,VALID,0,VALID,104,VALID,0,VALID,23.9863,VALID,78,VALID,0,
2011-04-22, 00:37:04,VALID,1009.38,VALID,0,VALID,104,VALID,0,VALID,23.9668,VALID,78,VALID,0,
2011-04-22, 00:38:04,VALID,1009.35,VALID,0,VALID,104,VALID,0,VALID,23.9881,VALID,78,VALID,0,
2011-04-22, 00:39:04,VALID,1009.34,VALID,0,VALID,104,VALID,0,VALID,23.9668,VALID,78,VALID,0,
2011-04-22, 00:40:04,VALID,1009.35,VALID,0,VALID,104,VALID,0,VALID,23.9668,VALID,78,VALID,0,
2011-04-22, 00:41:04,VALID,1009.32,VALID,0,VALID,104,VALID,0,VALID,23.9668,VALID,78,VALID,0,
2011-04-22, 00:42:04,VALID,1009.3,VALID,0,VALID,104,VALID,0,VALID,23.9668,VALID,78,VALID,0.299219,
2011-04-22, 00:43:04,VALID,1009.3,VALID,0,VALID,104,VALID,0,VALID,23.9668,VALID,78,VALID,0.524609,
2011-04-22, 00:44:04,VALID,1009.26,VALID,0,VALID,104,VALID,0,VALID,23.9668,VALID,83,VALID,0.631641,
2011-04-22, 00:45:04,VALID,1009.25,VALID,0,VALID,104,VALID,0,VALID,23.9668,VALID,79,VALID,0.631641,
2011-04-22, 00:46:04,VALID,1009.23,VALID,0,VALID,104,VALID,0,VALID,24.0076,VALID,79,VALID,0.396094,
2011-04-22, 00:47:04,VALID,1009.21,VALID,0,VALID,104,VALID,0,VALID,24.0076,VALID,79,VALID,0.390234,
2011-04-22, 00:48:04,VALID,1009.24,VALID,0,VALID,104,VALID,0,VALID,23.9668,VALID,79,VALID,0.362891,
2011-04-22, 00:49:04,VALID,1009.18,VALID,0,VALID,104,VALID,0,VALID,23.9881,VALID,79,VALID,0.139844,
2011-04-22, 00:50:04,VALID,1009.16,VALID,0,VALID,104,VALID,0,VALID,23.9881,VALID,79,VALID,0.514453,
2011-04-22, 00:51:04,VALID,1009.18,VALID,0,VALID,104,VALID,0,VALID,23.9668,VALID,79,VALID,0.183984,
2011-04-22, 00:52:04,VALID,1009.17,VALID,0,VALID,104,VALID,0,VALID,23.9668,VALID,79,VALID,0,
2011-04-22, 00:53:04,VALID,1009.17,VALID,0,VALID,104,VALID,0,VALID,23.9668,VALID,79,VALID,0,
2011-04-22, 00:54:04,VALID,1009.17,VALID,0,VALID,104,VALID,0,VALID,23.9668,VALID,79,VALID,0,
2011-04-22, 00:55:04,VALID,1009.18,VALID,0,VALID,104,VALID,0,VALID,23.9473,VALID,79,VALID,0,
2011-04-22, 00:56:04,VALID,1009.2,VALID,0,VALID,104,VALID,0,VALID,23.9473,VALID,83,VALID,0.419922,
2011-04-22, 00:57:04,VALID,1009.18,VALID,0,VALID,104,VALID,0,VALID,23.9491,VALID,85,VALID,0.359766,
2011-04-22, 00:58:04,VALID,1009.16,VALID,0,VALID,104,VALID,0,VALID,23.9278,VALID,85,VALID,0,
2011-04-22, 00:59:04,VALID,1009.19,VALID,0,VALID,104,VALID,0,VALID,23.9278,VALID,85,VALID,0,
2011-04-22, 01:00:04,VALID,1009.2,VALID,0,VALID,104,VALID,0,VALID,23.9473,VALID,85,VALID,0.157422,
2011-04-22, 01:01:04,VALID,1009.21,VALID,0,VALID,104,VALID,0,VALID,23.9473,VALID,85,VALID,0.0265625,
2011-04-22, 01:02:04,VALID,1009.24,VALID,0,VALID,104,VALID,0,VALID,23.9473,VALID,85,VALID,0.377344,
2011-04-22, 01:03:04,VALID,1009.23,VALID,0,VALID,104,VALID,0,VALID,23.9473,VALID,85,VALID,0.441016,
2011-04-22, 01:04:04,VALID,1009.21,VALID,0,VALID,104,VALID,0,VALID,23.9881,VALID,85,VALID,0.139062,
2011-04-22, 01:05:04,VALID,1009.2,VALID,0,VALID,104,VALID,0,VALID,23.9668,VALID,85,VALID,0.317969,
2011-04-22, 01:06:04,VALID,1009.16,VALID,0,VALID,104,VALID,0,VALID,23.9668,VALID,85,VALID,0.414453,
2011-04-22, 01:07:04,VALID,1009.16,VALID,0,VALID,104,VALID,0,VALID,23.9863,VALID,106,VALID,0.376172,
2011-04-22, 01:08:04,VALID,1009.1,VALID,0,VALID,104,VALID,0,VALID,23.9863,VALID,127,VALID,0.272656,
2011-04-22, 01:09:04,VALID,1009.09,VALID,0,VALID,104,VALID,0,VALID,23.9863,VALID,127,VALID,0,
2011-04-22, 01:10:04,VALID,1009.07,VALID,0,VALID,104,VALID,0,VALID,23.9863,VALID,127,VALID,0,
2011-04-22, 01:11:04,VALID,1009.04,VALID,0,VALID,104,VALID,0,VALID,23.9668,VALID,127,VALID,0,
2011-04-22, 01:12:04,VALID,1009.03,VALID,0,VALID,104,VALID,0,VALID,23.9863,VALID,127,VALID,0,
2011-04-22, 01:13:04,VALID,1009,VALID,0,VALID,104,VALID,0,VALID,23.9668,VALID,127,VALID,0,
2011-04-22, 01:14:04,VALID,1008.99,VALID,0,VALID,104,VALID,0,VALID,23.9473,VALID,127,VALID,0,
2011-04-22, 01:15:04,VALID,1008.98,VALID,0,VALID,104,VALID,0,VALID,23.9473,VALID,127,VALID,0,
2011-04-22, 01:16:04,VALID,1008.94,VALID,0,VALID,104,VALID,0,VALID,23.9491,VALID,127,VALID,0,
2011-04-22, 01:17:04,VALID,1008.9,VALID,0,VALID,104,VALID,0,VALID,23.9278,VALID,127,VALID,0,
2011-04-22, 01:18:04,VALID,1008.86,VALID,0,VALID,104,VALID,0,VALID,23.9278,VALID,127,VALID,0,
2011-04-22, 01:19:04,VALID,1008.83,VALID,0,VALID,104,VALID,0,VALID,23.8889,VALID,127,VALID,0.176953,
2011-04-22, 01:20:04,VALID,1008.82,VALID,0,VALID,104,VALID,0,VALID,23.8889,VALID,127,VALID,0,
2011-04-22, 01:21:04,VALID,1008.79,VALID,0,VALID,104,VALID,0,VALID,23.8694,VALID,127,VALID,0,
2011-04-22, 01:22:04,VALID,1008.76,VALID,0,VALID,104,VALID,0,VALID,23.8499,VALID,127,VALID,0,
2011-04-22, 01:23:04,VALID,1008.74,VALID,0,VALID,104,VALID,0,VALID,23.8694,VALID,127,VALID,0,
2011-04-22, 01:24:04,VALID,1008.75,VALID,0,VALID,104,VALID,0,VALID,23.8907,VALID,127,VALID,0,
2011-04-22, 01:25:04,VALID,1008.76,VALID,0,VALID,104,VALID,0,VALID,23.8907,VALID,127,VALID,0,
2011-04-22, 01:26:04,VALID,1008.74,VALID,0,VALID,104,VALID,0,VALID,23.8694,VALID,127,VALID,0.00195313,
2011-04-22, 01:27:04,VALID,1008.78,VALID,0,VALID,104,VALID,0,VALID,23.8694,VALID,127,VALID,0,
2011-04-22, 01:28:04,VALID,1008.75,VALID,0,VALID,104,VALID,0,VALID,23.8694,VALID,127,VALID,0.0121094,
2011-04-22, 01:29:04,VALID,1008.76,VALID,0,VALID,104,VALID,0,VALID,23.8907,VALID,127,VALID,0,
2011-04-22, 01:30:04,VALID,1008.71,VALID,0,VALID,104,VALID,0,VALID,23.8889,VALID,127,VALID,0,
2011-04-22, 01:31:04,VALID,1008.7,VALID,0,VALID,104,VALID,0,VALID,23.9102,VALID,127,VALID,0,
2011-04-22, 01:32:04,VALID,1008.65,VALID,0,VALID,104,VALID,0,VALID,23.8889,VALID,127,VALID,0,
2011-04-22, 01:33:04,VALID,1008.65,VALID,0,VALID,104,VALID,0,VALID,23.9084,VALID,127,VALID,0,
2011-04-22, 01:34:04,VALID,1008.64,VALID,0,VALID,104,VALID,0,VALID,23.8889,VALID,127,VALID,0,
2011-04-22, 01:35:04,VALID,1008.63,VALID,0,VALID,104,VALID,0,VALID,23.8694,VALID,107,VALID,0.461328,
2011-04-22, 01:36:04,VALID,1008.64,VALID,0,VALID,104,VALID,0,VALID,23.8907,VALID,106,VALID,0.359375,
2011-04-22, 01:37:04,VALID,1008.64,VALID,0,VALID,104,VALID,0,VALID,23.8712,VALID,106,VALID,0.274609,
2011-04-22, 01:38:05,VALID,1008.65,VALID,0,VALID,104,VALID,0,VALID,23.8304,VALID,106,VALID,0.116797,
2011-04-22, 01:39:04,VALID,1008.65,VALID,0,VALID,104,VALID,0,VALID,23.8304,VALID,106,VALID,0.025,
2011-04-22, 01:40:05,VALID,1008.65,VALID,0,VALID,104,VALID,0,VALID,23.8109,VALID,106,VALID,0.124219,
2011-04-22, 01:41:05,VALID,1008.65,VALID,0,VALID,104,VALID,0,VALID,23.8109,VALID,106,VALID,0,
2011-04-22, 01:42:05,VALID,1008.63,VALID,0,VALID,104,VALID,0,VALID,23.8109,VALID,106,VALID,0,
2011-04-22, 01:43:05,VALID,1008.64,VALID,0,VALID,104,VALID,0,VALID,23.7914,VALID,106,VALID,0,
2011-04-22, 01:44:05,VALID,1008.62,VALID,0,VALID,104,VALID,0,VALID,23.7507,VALID,106,VALID,0,
2011-04-22, 01:45:05,VALID,1008.63,VALID,0,VALID,104,VALID,0.105969,VALID,23.772,VALID,106,VALID,0,
2011-04-22, 01:46:05,VALID,1008.63,VALID,0,VALID,104,VALID,0,VALID,23.772,VALID,106,VALID,0,
2011-04-22, 01:47:05,VALID,1008.61,VALID,0,VALID,104,VALID,0,VALID,23.7525,VALID,106,VALID,0,
2011-04-22, 01:48:05,VALID,1008.6,VALID,0,VALID,104,VALID,0,VALID,23.7525,VALID,106,VALID,0,
2011-04-22, 01:49:05,VALID,1008.57,VALID,0,VALID,104,VALID,0,VALID,23.7312,VALID,106,VALID,0,
2011-04-22, 01:50:05,VALID,1008.6,VALID,0,VALID,104,VALID,0.105969,VALID,23.7312,VALID,106,VALID,0,
2011-04-22, 01:51:05,VALID,1008.59,VALID,0,VALID,104,VALID,0.105969,VALID,23.7525,VALID,106,VALID,0,
2011-04-22, 01:52:05,VALID,1008.6,VALID,0,VALID,104,VALID,0,VALID,23.7312,VALID,106,VALID,0,
2011-04-22, 01:53:05,VALID,1008.61,VALID,0,VALID,104,VALID,0,VALID,23.7525,VALID,106,VALID,0,
2011-04-22, 01:54:05,VALID,1008.58,VALID,0,VALID,104,VALID,0.105969,VALID,23.7525,VALID,106,VALID,0,
2011-04-22, 01:55:05,VALID,1008.59,VALID,0,VALID,104,VALID,0.105969,VALID,23.7525,VALID,106,VALID,0,
2011-04-22, 01:56:05,VALID,1008.58,VALID,0,VALID,104,VALID,0,VALID,23.7525,VALID,106,VALID,0,
2011-04-22, 01:57:05,VALID,1008.57,VALID,0,VALID,104,VALID,0,VALID,23.7525,VALID,106,VALID,0,
2011-04-22, 01:58:05,VALID,1008.54,VALID,0,VALID,104,VALID,0,VALID,23.7914,VALID,106,VALID,0,
2011-04-22, 01:59:05,VALID,1008.55,VALID,0,VALID,104,VALID,0,VALID,23.7914,VALID,106,VALID,0,
2011-04-22, 02:00:05,VALID,1008.53,VALID,0,VALID,104,VALID,0,VALID,23.8109,VALID,106,VALID,0,
2011-04-22, 02:01:05,VALID,1008.54,VALID,0,VALID,104,VALID,0.105969,VALID,23.8304,VALID,106,VALID,0.379297,
2011-04-22, 02:02:05,VALID,1008.54,VALID,0,VALID,104,VALID,0,VALID,23.8304,VALID,106,VALID,0.0382813,
2011-04-22, 02:03:05,VALID,1008.54,VALID,0,VALID,104,VALID,0,VALID,23.8286,VALID,106,VALID,0,
2011-04-22, 02:04:05,VALID,1008.54,VALID,0,VALID,104,VALID,0,VALID,23.8499,VALID,106,VALID,0.137109,
2011-04-22, 02:05:05,VALID,1008.53,VALID,0,VALID,104,VALID,0,VALID,23.8499,VALID,106,VALID,0.676172,
2011-04-22, 02:06:05,VALID,1008.52,VALID,0,VALID,104,VALID,0,VALID,23.8481,VALID,106,VALID,0.590625,
2011-04-22, 02:07:05,VALID,1008.51,VALID,0,VALID,104,VALID,0,VALID,23.8694,VALID,107,VALID,0.605859,
2011-04-22, 02:08:05,VALID,1008.51,VALID,0,VALID,104,VALID,0,VALID,23.8481,VALID,115,VALID,0.638281,
2011-04-22, 02:09:05,VALID,1008.52,VALID,0,VALID,104,VALID,0,VALID,23.8694,VALID,115,VALID,0.613281,
2011-04-22, 02:10:05,VALID,1008.52,VALID,0,VALID,104,VALID,0,VALID,23.8694,VALID,115,VALID,0.426562,
2011-04-22, 02:11:05,VALID,1008.52,VALID,0,VALID,104,VALID,0,VALID,23.8694,VALID,115,VALID,0.333203,
2011-04-22, 02:12:05,VALID,1008.54,VALID,0,VALID,104,VALID,0.105969,VALID,23.8481,VALID,115,VALID,0.0375,
2011-04-22, 02:13:05,VALID,1008.53,VALID,0,VALID,104,VALID,0,VALID,23.8694,VALID,114,VALID,0.450391,
2011-04-22, 02:14:05,VALID,1008.56,VALID,0,VALID,104,VALID,0,VALID,23.8694,VALID,113,VALID,0.392578,
2011-04-22, 02:15:05,VALID,1008.58,VALID,0,VALID,104,VALID,0,VALID,23.8694,VALID,113,VALID,0.372656,
2011-04-22, 02:16:05,VALID,1008.61,VALID,0,VALID,104,VALID,0.105969,VALID,23.8694,VALID,113,VALID,0,
2011-04-22, 02:17:05,VALID,1008.61,VALID,0,VALID,104,VALID,0,VALID,23.8676,VALID,113,VALID,0.116406,
2011-04-22, 02:18:05,VALID,1008.62,VALID,0,VALID,104,VALID,0.105969,VALID,23.8694,VALID,92,VALID,0.15,
2011-04-22, 02:19:05,VALID,1008.61,VALID,0,VALID,104,VALID,0.105969,VALID,23.8499,VALID,92,VALID,0,
2011-04-22, 02:20:05,VALID,1008.62,VALID,0,VALID,104,VALID,0,VALID,23.8499,VALID,92,VALID,0,
2011-04-22, 02:21:05,VALID,1008.62,VALID,0,VALID,104,VALID,0,VALID,23.8286,VALID,92,VALID,0,
2011-04-22, 02:22:05,VALID,1008.65,VALID,0,VALID,104,VALID,0,VALID,23.8286,VALID,92,VALID,0,
2011-04-22, 02:23:05,VALID,1008.7,VALID,0,VALID,104,VALID,0,VALID,23.8304,VALID,92,VALID,0,
2011-04-22, 02:24:05,VALID,1008.75,VALID,0,VALID,104,VALID,0.105969,VALID,23.8109,VALID,92,VALID,0,
2011-04-22, 02:25:05,VALID,1008.79,VALID,0,VALID,104,VALID,0,VALID,23.8304,VALID,92,VALID,0,
2011-04-22, 02:26:05,VALID,1008.8,VALID,0,VALID,104,VALID,0,VALID,23.8109,VALID,92,VALID,0,
2011-04-22, 02:27:05,VALID,1008.81,VALID,0,VALID,104,VALID,0.105969,VALID,23.8304,VALID,92,VALID,0,
2011-04-22, 02:28:05,VALID,1008.85,VALID,0,VALID,104,VALID,0,VALID,23.8304,VALID,92,VALID,0,
2011-04-22, 02:29:05,VALID,1008.89,VALID,0,VALID,104,VALID,0.105969,VALID,23.8109,VALID,92,VALID,0,
2011-04-22, 02:30:05,VALID,1008.9,VALID,0,VALID,104,VALID,0.105969,VALID,23.7896,VALID,92,VALID,0,
2011-04-22, 02:31:05,VALID,1008.97,VALID,0,VALID,104,VALID,0,VALID,23.7896,VALID,92,VALID,0,
2011-04-22, 02:32:05,VALID,1008.97,VALID,0,VALID,104,VALID,0,VALID,23.8109,VALID,92,VALID,0,
2011-04-22, 02:33:05,VALID,1009.04,VALID,0,VALID,104,VALID,0.105969,VALID,23.8304,VALID,92,VALID,0,
2011-04-22, 02:34:05,VALID,1009.01,VALID,0,VALID,104,VALID,0.105969,VALID,23.7896,VALID,92,VALID,0,
2011-04-22, 02:35:05,VALID,1009,VALID,0,VALID,104,VALID,0,VALID,23.8304,VALID,92,VALID,0,
2011-04-22, 02:36:05,VALID,1009.01,VALID,0,VALID,104,VALID,0.105969,VALID,23.7896,VALID,92,VALID,0.467187,
2011-04-22, 02:37:05,VALID,1008.97,VALID,0,VALID,104,VALID,0.105969,VALID,23.8091,VALID,92,VALID,0.507813,
2011-04-22, 02:38:05,VALID,1008.93,VALID,0,VALID,104,VALID,0.105969,VALID,23.8091,VALID,92,VALID,0.643359,
2011-04-22, 02:39:05,VALID,1008.89,VALID,0,VALID,104,VALID,0,VALID,23.7896,VALID,76,VALID,0.763281,
2011-04-22, 02:40:05,VALID,1008.83,VALID,0,VALID,104,VALID,0,VALID,23.8304,VALID,89,VALID,0.516406,
2011-04-22, 02:41:05,VALID,1008.81,VALID,0,VALID,104,VALID,0,VALID,23.8109,VALID,83,VALID,0.801562,
2011-04-22, 02:42:05,VALID,1008.8,VALID,0,VALID,104,VALID,0.105969,VALID,23.7896,VALID,83,VALID,1.07578,
2011-04-22, 02:43:05,VALID,1008.8,VALID,0,VALID,104,VALID,0,VALID,23.7914,VALID,78,VALID,0.583594,
2011-04-22, 02:44:05,VALID,1008.79,VALID,0,VALID,104,VALID,0,VALID,23.7896,VALID,78,VALID,0.405469,
2011-04-22, 02:45:05,VALID,1008.78,VALID,0,VALID,104,VALID,0,VALID,23.7896,VALID,87,VALID,0.681641,
2011-04-22, 02:46:05,VALID,1008.74,VALID,0,VALID,104,VALID,0,VALID,23.7701,VALID,80,VALID,0.55,
2011-04-22, 02:47:05,VALID,1008.7,VALID,0,VALID,104,VALID,0,VALID,23.7701,VALID,92,VALID,0.773047,
2011-04-22, 02:48:05,VALID,1008.67,VALID,0,VALID,104,VALID,0,VALID,23.7701,VALID,91,VALID,0.65,
2011-04-22, 02:49:05,VALID,1008.65,VALID,0,VALID,104,VALID,0,VALID,23.772,VALID,92,VALID,0.839453,
2011-04-22, 02:50:05,VALID,1008.61,VALID,0,VALID,104,VALID,0,VALID,23.772,VALID,86,VALID,0.994531,
2011-04-22, 02:51:05,VALID,1008.61,VALID,0,VALID,104,VALID,0.105969,VALID,23.7507,VALID,86,VALID,1.28086,
2011-04-22, 02:52:05,VALID,1008.6,VALID,0,VALID,104,VALID,0.105969,VALID,23.7525,VALID,74,VALID,0.970312,
2011-04-22, 02:53:05,VALID,1008.58,VALID,0,VALID,104,VALID,0,VALID,23.7117,VALID,86,VALID,0.567578,
2011-04-22, 02:54:05,VALID,1008.6,VALID,0,VALID,104,VALID,0,VALID,23.733,VALID,83,VALID,0.884375,
2011-04-22, 02:55:05,VALID,1008.57,VALID,0,VALID,104,VALID,0,VALID,23.6922,VALID,84,VALID,0.840234,
2011-04-22, 02:56:05,VALID,1008.57,VALID,0,VALID,104,VALID,0,VALID,23.6922,VALID,74,VALID,0.590625,
2011-04-22, 02:57:05,VALID,1008.57,VALID,0,VALID,104,VALID,0,VALID,23.694,VALID,73,VALID,0.682422,
2011-04-22, 02:58:05,VALID,1008.56,VALID,0,VALID,104,VALID,0,VALID,23.694,VALID,74,VALID,0.584375,
2011-04-22, 02:59:05,VALID,1008.54,VALID,0,VALID,104,VALID,0,VALID,23.6745,VALID,74,VALID,0.244531,
2011-04-22, 03:00:05,VALID,1008.55,VALID,0,VALID,104,VALID,0,VALID,23.655,VALID,74,VALID,0.335547,
2011-04-22, 03:01:05,VALID,1008.56,VALID,0,VALID,104,VALID,0,VALID,23.6532,VALID,74,VALID,0.235938,
2011-04-22, 03:02:05,VALID,1008.59,VALID,0,VALID,104,VALID,0,VALID,23.6532,VALID,74,VALID,0.00117188,
2011-04-22, 03:03:05,VALID,1008.63,VALID,0,VALID,104,VALID,0,VALID,23.6532,VALID,74,VALID,0.141016,
2011-04-22, 03:04:05,VALID,1008.63,VALID,0,VALID,104,VALID,0,VALID,23.655,VALID,74,VALID,0,
2011-04-22, 03:05:05,VALID,1008.63,VALID,0,VALID,104,VALID,0,VALID,23.6338,VALID,74,VALID,0.212109,
2011-04-22, 03:06:05,VALID,1008.63,VALID,0,VALID,104,VALID,0,VALID,23.6356,VALID,74,VALID,0.417188,
2011-04-22, 03:07:05,VALID,1008.64,VALID,0,VALID,104,VALID,0,VALID,23.6143,VALID,74,VALID,0.383594,
2011-04-22, 03:08:05,VALID,1008.62,VALID,0,VALID,104,VALID,0,VALID,23.6356,VALID,74,VALID,0.424609,
2011-04-22, 03:09:05,VALID,1008.58,VALID,0,VALID,104,VALID,0,VALID,23.6356,VALID,74,VALID,0.335547,
2011-04-22, 03:10:05,VALID,1008.55,VALID,0,VALID,104,VALID,0,VALID,23.655,VALID,74,VALID,0.499609,
2011-04-22, 03:11:05,VALID,1008.52,VALID,0,VALID,104,VALID,0,VALID,23.655,VALID,79,VALID,0.781641,
2011-04-22, 03:12:05,VALID,1008.51,VALID,0,VALID,104,VALID,0,VALID,23.655,VALID,97,VALID,1.09961,
2011-04-22, 03:13:05,VALID,1008.51,VALID,0,VALID,104,VALID,0,VALID,23.6356,VALID,81,VALID,1.24414,
2011-04-22, 03:14:05,VALID,1008.53,VALID,0,VALID,104,VALID,0,VALID,23.6143,VALID,74,VALID,0.922266,
2011-04-22, 03:15:05,VALID,1008.51,VALID,0,VALID,104,VALID,0,VALID,23.6338,VALID,74,VALID,0.548828,
2011-04-22, 03:16:05,VALID,1008.53,VALID,0,VALID,104,VALID,0,VALID,23.655,VALID,97,VALID,0.975,
2011-04-22, 03:17:05,VALID,1008.53,VALID,0,VALID,104,VALID,0,VALID,23.6143,VALID,97,VALID,0.794531,
2011-04-22, 03:18:05,VALID,1008.53,VALID,0,VALID,104,VALID,0,VALID,23.655,VALID,97,VALID,0.857813,
2011-04-22, 03:19:05,VALID,1008.53,VALID,0,VALID,104,VALID,0,VALID,23.6356,VALID,92,VALID,1.22266,
2011-04-22, 03:20:05,VALID,1008.51,VALID,0,VALID,104,VALID,0,VALID,23.6356,VALID,92,VALID,0.572266,
2011-04-22, 03:21:05,VALID,1008.52,VALID,0,VALID,104,VALID,0,VALID,23.6356,VALID,98,VALID,0.738672,
2011-04-22, 03:22:05,VALID,1008.53,VALID,0,VALID,104,VALID,0,VALID,23.6338,VALID,89,VALID,0.704687,
2011-04-22, 03:23:05,VALID,1008.49,VALID,0,VALID,104,VALID,0,VALID,23.6143,VALID,89,VALID,0.646875,
2011-04-22, 03:24:05,VALID,1008.53,VALID,0,VALID,104,VALID,0,VALID,23.6356,VALID,91,VALID,0.867969,
2011-04-22, 03:25:05,VALID,1008.48,VALID,0,VALID,104,VALID,0,VALID,23.6161,VALID,79,VALID,0.387109,
2011-04-22, 03:26:05,VALID,1008.51,VALID,0,VALID,104,VALID,0,VALID,23.6356,VALID,79,VALID,0.328906,
2011-04-22, 03:27:05,VALID,1008.52,VALID,0,VALID,104,VALID,0,VALID,23.6356,VALID,100,VALID,0.863672,
2011-04-22, 03:28:05,VALID,1008.52,VALID,0,VALID,104,VALID,0,VALID,23.6356,VALID,91,VALID,0.644922,
2011-04-22, 03:29:05,VALID,1008.5,VALID,0,VALID,104,VALID,0,VALID,23.6143,VALID,91,VALID,0.852344,
2011-04-22, 03:30:05,VALID,1008.49,VALID,0,VALID,104,VALID,0,VALID,23.6143,VALID,91,VALID,1.03437,
2011-04-22, 03:31:05,VALID,1008.46,VALID,0,VALID,104,VALID,0,VALID,23.6143,VALID,96,VALID,1.12734,
2011-04-22, 03:32:05,VALID,1008.46,VALID,0,VALID,104,VALID,0,VALID,23.6161,VALID,82,VALID,0.799609,
2011-04-22, 03:33:05,VALID,1008.48,VALID,0,VALID,104,VALID,0,VALID,23.6161,VALID,86,VALID,1.36953,
2011-04-22, 03:34:05,VALID,1008.47,VALID,0,VALID,104,VALID,0,VALID,23.6356,VALID,101,VALID,0.901953,
2011-04-22, 03:35:05,VALID,1008.48,VALID,0,VALID,104,VALID,0,VALID,23.6143,VALID,88,VALID,1.13789,
2011-04-22, 03:36:05,VALID,1008.46,VALID,0,VALID,104,VALID,0,VALID,23.5948,VALID,103,VALID,0.949609,
2011-04-22, 03:37:05,VALID,1008.45,VALID,0,VALID,104,VALID,0,VALID,23.5948,VALID,99,VALID,0.671094,
2011-04-22, 03:38:05,VALID,1008.43,VALID,0,VALID,104,VALID,0,VALID,23.6161,VALID,104,VALID,0.682422,
2011-04-22, 03:39:05,VALID,1008.45,VALID,0,VALID,104,VALID,0,VALID,23.6161,VALID,89,VALID,0.592188,
2011-04-22, 03:40:05,VALID,1008.41,VALID,0,VALID,104,VALID,0,VALID,23.6161,VALID,89,VALID,0.868359,
2011-04-22, 03:41:05,VALID,1008.41,VALID,0,VALID,104,VALID,0,VALID,23.5966,VALID,97,VALID,0.689453,
2011-04-22, 03:42:05,VALID,1008.38,VALID,0,VALID,104,VALID,0,VALID,23.6161,VALID,86,VALID,0.478516,
2011-04-22, 03:43:05,VALID,1008.42,VALID,0,VALID,104,VALID,0.105969,VALID,23.5948,VALID,84,VALID,0.620313,
2011-04-22, 03:44:05,VALID,1008.41,VALID,0,VALID,104,VALID,0,VALID,23.5966,VALID,73,VALID,0.414844,
2011-04-22, 03:45:05,VALID,1008.41,VALID,0,VALID,104,VALID,0,VALID,23.5966,VALID,73,VALID,0.851563,
2011-04-22, 03:46:05,VALID,1008.41,VALID,0,VALID,104,VALID,0,VALID,23.5966,VALID,73,VALID,0.298438,
2011-04-22, 03:47:05,VALID,1008.43,VALID,0,VALID,104,VALID,0,VALID,23.5948,VALID,73,VALID,0.846484,
2011-04-22, 03:48:05,VALID,1008.45,VALID,0,VALID,104,VALID,0,VALID,23.5966,VALID,73,VALID,0.0957031,
2011-04-22, 03:49:05,VALID,1008.45,VALID,0,VALID,104,VALID,0,VALID,23.6161,VALID,73,VALID,0.0457031,
2011-04-22, 03:50:05,VALID,1008.51,VALID,0,VALID,104,VALID,0,VALID,23.6161,VALID,73,VALID,0.164063,
2011-04-22, 03:51:05,VALID,1008.57,VALID,0,VALID,104,VALID,0,VALID,23.6161,VALID,302,VALID,0.783984,
2011-04-22, 03:52:05,VALID,1008.64,VALID,0,VALID,104,VALID,0,VALID,23.6356,VALID,276,VALID,1.15937,
2011-04-22, 03:53:05,VALID,1008.69,VALID,0,VALID,104,VALID,0,VALID,23.6763,VALID,268,VALID,0.492188,
2011-04-22, 03:54:05,VALID,1008.71,VALID,0,VALID,104,VALID,0,VALID,23.694,VALID,260,VALID,0.445703,
2011-04-22, 03:55:05,VALID,1008.73,VALID,0,VALID,104,VALID,0,VALID,23.733,VALID,253,VALID,0.503125,
2011-04-22, 03:56:05,VALID,1008.77,VALID,0,VALID,104,VALID,0,VALID,23.733,VALID,223,VALID,1.4582,
2011-04-22, 03:57:05,VALID,1008.77,VALID,0.5,VALID,104,VALID,0,VALID,23.733,VALID,211,VALID,1.11289,
2011-04-22, 03:58:05,VALID,1008.76,VALID,1,VALID,104,VALID,0,VALID,23.6922,VALID,211,VALID,0.670313,
2011-04-22, 03:59:05,VALID,1008.77,VALID,0.5,VALID,104,VALID,0.105969,VALID,23.694,VALID,211,VALID,0.760156,
2011-04-22, 04:00:05,VALID,1008.82,VALID,0.5,VALID,104,VALID,0,VALID,23.6727,VALID,216,VALID,0.971094,